Location: Yucca Valley
(34.1140°N, 116.4310°W)
Time: 18:07:17
(UTC-08:00)

Daily predictions for brighter satellites

Satellite Brightness Start Highest point End
(mag) Time Altitude Azimuth Time Altitude Azimuth Time Altitude Azimuth
ATLAS 5 CENTAUR R/B 4.4 17:20:11 10° SSW 17:26:02 79° ESE 17:53:03 10° NE
SKYMED 2 3.9 17:24:46 10° NNE 17:28:57 46° E 17:33:06 10° S
Hubble Space Telescope 3.1 17:28:03 10° S 17:29:51 13° SSE 17:31:39 10° SE
YAOGAN 1 2.8 17:26:34 10° SSE 17:30:42 47° ENE 17:34:52 10° N
Cosmos 2366 rocket 4.1 17:24:36 10° N 17:30:44 58° E 17:36:45 10° SSE
Cosmos 1315 Rocket 2.8 17:27:36 10° S 17:31:31 85° W 17:35:26 10° N
Cosmos 44 Rocket 4.0 17:32:02 10° SW 17:36:35 52° WNW 17:41:12 10° NNE
Cosmos 2221 3.8 17:33:01 10° NNW 17:37:13 46° W 17:41:25 10° SSW
Ariane Rocket 3.4 17:34:49 10° S 17:39:51 72° WSW 17:44:55 10° NNW
Cosmos 2151 3.6 17:40:35 10° SSE 17:44:24 33° E 17:48:16 10° NNE
Nadezhda 3 Rocket 4.4 17:40:22 10° SSE 17:46:16 43° E 17:52:13 10° NNE
Landsat 4 3.6 17:45:55 10° NNE 17:49:37 64° ESE 17:53:17 10° S
EO 1 Del DPAF 3.5 17:46:50 10° NNE 17:50:32 45° E 17:54:12 10° S
MTI 3.7 17:47:43 10° NNE 17:50:55 72° ESE 17:54:04 10° S
ERS-2 3.3 17:48:20 10° ESE 17:51:15 22° ENE 17:54:10 10° NNE
ALOS 2.3 17:48:20 10° SSE 17:52:51 55° ENE 17:57:25 10° N
SL-24 R/B - RUBIN 2 3.5 17:50:02 10° NNW 17:54:27 88° ENE 17:58:44 10° SSE
Cosmos 1656 Rocket 3.6 17:50:55 10° NNW 17:56:26 88° ENE 18:02:00 10° SSE
Cosmos 332 Rocket 3.8 17:52:12 10° S 17:57:02 69° ESE 18:01:56 10° NNE
MONITOR-E 4.1 17:54:48 10° SSE 17:57:47 57° ENE 18:00:47 10° N
Tiangong 1 0.7 17:57:24 10° NW 17:59:49 48° NNE 18:01:08 21° E
Cosmos 1408 Rocket 4.1 17:55:46 10° SSW 17:59:59 59° W 18:04:14 10° N
Cosmos 1515 Rocket 3.8 18:01:42 10° N 18:05:50 43° E 18:09:57 10° SSE
Cosmos 1340 4.1 18:04:34 10° NNE 18:11:13 - SE 18:06:35 19° ENE
Cosmos 1703 3.4 18:04:44 10° S 18:08:41 79° W 18:12:41 10° N
Cosmos 1777 Rocket 4.1 18:03:49 10° NNW 18:09:05 81° WSW 18:14:20 10° SSE
OAO 3 Rocket 3.4 18:08:25 10° W 18:13:03 65° SSW 18:16:56 15° ESE
CZ-4C R/B 2.6 18:09:05 10° S 18:13:36 35° ESE 18:16:36 20° ENE
Cosmos 1500 Rocket 3.5 18:09:32 10° S 18:13:57 66° E 18:18:23 10° NNE
SPOT 3 Rocket 3.4 18:10:31 10° SSE 18:15:37 72° ENE 18:20:46 10° N
COSMO-SKYMED 1 3.7 18:12:50 10° N 18:16:58 44° WNW 18:21:05 10° SW
Lacrosse 5 2.1 18:12:12 10° SSW 18:17:07 52° SE 18:20:11 22° ENE
Cosmos 909 Rocket 4.3 18:12:01 10° NNW 18:18:23 47° ENE 18:24:22 10° SE
ASTRO E2 3.1 18:20:07 10° W 18:24:02 55° S 18:26:02 26° ESE
FENGYUN 3A 3.9 18:20:10 10° S 18:25:30 73° WSW 18:30:52 10° NNW
USA 81 4.0 18:22:33 10° S 18:27:49 85° E 18:33:07 10° N
Meteor 2-15 4.3 18:22:31 10° S 18:28:37 77° E 18:34:42 10° N
Cosmos 1743 Rocket 4.1 18:25:07 10° SSW 18:29:25 59° W 18:33:42 10° N
Cosmos 2239 Rocket 4.5 18:23:43 10° N 18:29:45 55° E 18:35:45 10° SSE
Cosmos 2208 Rocket 4.0 18:26:46 10° SSW 18:32:01 90° SW 18:37:24 10° NNE
Cosmos 468 Rocket 3.9 18:28:32 10° S 18:33:33 58° ESE 18:36:47 22° NNE
Cosmos 1328 Rocket 4.3 18:30:32 10° NNW 18:34:46 52° W 18:38:57 10° S
ISS -3.9 18:33:14 10° SW 18:36:27 63° SE 18:36:33 62° ESE
ATLAS CENTAUR R/B 3.5 18:35:53 10° SSE 18:36:10 11° SSE 18:36:10 11° SSE
Cosmos 1814 Rocket 4.4 18:34:20 10° S 18:39:17 40° E 18:40:15 36° ENE
Cosmos 1898 Rocket 4.0 18:35:01 10° N 18:39:47 35° ENE 18:39:47 35° ENE
Cosmos 2228 Rocket 3.5 18:35:37 10° NNW 18:40:10 66° W 18:44:41 10° S
Cosmos 371 Rocket 4.3 18:36:51 10° SW 18:41:26 45° WNW 18:46:04 10° N
Cosmos 1763 Rocket 3.7 18:41:43 10° S 18:46:33 43° ESE 18:46:44 43° E
Cosmos 2082 Rocket 2.6 18:43:19 10° S 18:48:32 39° ESE 18:48:39 39° ESE
H-2A R/B 3.1 18:48:32 10° S 18:52:17 64° W 18:56:08 10° NNW
SEDSat Delta rocket 4.0 18:50:20 10° W 18:57:03 69° S 18:59:13 42° ESE
Cosmos 1455 4.0 18:55:34 10° NNW 18:59:00 32° W 19:02:23 10° SSW
Cosmos 1151 Rocket 4.4 18:58:54 10° NNW 19:03:00 40° W 19:07:04 10° SSW
SL-27 R/B 3.8 19:04:58 10° SW 19:08:09 36° WNW 19:08:22 36° WNW
Cosmos 1805 Rocket 3.8 19:04:53 10° S 19:08:22 57° S 19:08:22 57° S
Hubble Space Telescope 2.3 19:06:56 10° SW 19:09:42 27° S 19:09:42 27° S
Cosmos 1833 Rocket 2.5 19:05:21 10° S 19:10:53 68° ESE 19:10:53 68° ESE
Cosmos 1339 Rocket 4.4 19:30:09 10° S 19:36:02 81° WSW 19:36:02 81° WSW
Atlas Centaur 2 4.3 19:53:41 10° SSW 19:56:37 20° S 19:56:37 20° S
Lacrosse 5 3.9 19:56:14 10° W 19:59:25 23° NW 19:59:25 23° NW
CZ-4C R/B 3.8 19:57:43 10° WSW 20:01:51 27° NW 20:01:51 27° NW
Cosmos 2082 Rocket 4.5 20:28:08 10° WSW 20:30:36 20° W 20:30:36 20° W
